Year,Month,Day,Hour,Minute,Value (Times are PST for temperature in C)
2011,12,12,00,00,-2.60
2011,12,12,00,01,-2.60
2011,12,12,00,02,-2.60
2011,12,12,00,03,-2.70
2011,12,12,00,04,-2.70
2011,12,12,00,05,-2.70
2011,12,12,00,06,-2.70
2011,12,12,00,07,-2.70
2011,12,12,00,08,-2.70
2011,12,12,00,09,-2.70
2011,12,12,00,10,-2.70
2011,12,12,00,11,-2.70
2011,12,12,00,12,-2.80
2011,12,12,00,13,-2.80
2011,12,12,00,14,-2.80
2011,12,12,00,15,-2.80
2011,12,12,00,16,-2.80
2011,12,12,00,17,-2.80
2011,12,12,00,18,-2.80
2011,12,12,00,19,-2.80
2011,12,12,00,20,-2.80
2011,12,12,00,21,-2.80
2011,12,12,00,22,-2.90
2011,12,12,00,23,-2.80
2011,12,12,00,24,-2.90
2011,12,12,00,25,-2.90
2011,12,12,00,26,-2.90
2011,12,12,00,27,-2.90
2011,12,12,00,28,-2.90
2011,12,12,00,29,-2.90
2011,12,12,00,30,-2.90
2011,12,12,00,31,-2.90
2011,12,12,00,32,-2.90
2011,12,12,00,33,-2.80
2011,12,12,00,34,-2.80
2011,12,12,00,35,-2.80
2011,12,12,00,36,-2.90
2011,12,12,00,37,-2.90
2011,12,12,00,38,-2.90
2011,12,12,00,39,-2.90
2011,12,12,00,40,-2.90
2011,12,12,00,41,-2.90
2011,12,12,00,42,-2.90
2011,12,12,00,43,-2.90
2011,12,12,00,44,-2.90
2011,12,12,00,45,-2.90
2011,12,12,00,46,-2.90
2011,12,12,00,47,-2.90
2011,12,12,00,48,-2.90
2011,12,12,00,49,-2.90
2011,12,12,00,50,-2.90
2011,12,12,00,51,-2.90
2011,12,12,00,52,-2.90
2011,12,12,00,53,-2.90
2011,12,12,00,54,-2.90
2011,12,12,00,55,-2.90
2011,12,12,00,56,-3.00
2011,12,12,00,57,-3.00
2011,12,12,00,58,-3.00
2011,12,12,00,59,-3.10
2011,12,12,01,00,-3.10
2011,12,12,01,01,-3.10
2011,12,12,01,02,-3.20
2011,12,12,01,03,-3.20
2011,12,12,01,04,-3.20
2011,12,12,01,05,-3.20
2011,12,12,01,06,-3.20
2011,12,12,01,07,-3.20
2011,12,12,01,08,-3.20
2011,12,12,01,09,-3.20
2011,12,12,01,10,-3.20
2011,12,12,01,11,-3.10
2011,12,12,01,12,-3.20
2011,12,12,01,13,-3.20
2011,12,12,01,14,-3.20
2011,12,12,01,15,-3.20
2011,12,12,01,16,-3.20
2011,12,12,01,17,-3.20
2011,12,12,01,18,-3.20
2011,12,12,01,19,-3.20
2011,12,12,01,20,-3.20
2011,12,12,01,21,-3.20
2011,12,12,01,22,-3.20
2011,12,12,01,23,-3.20
2011,12,12,01,24,-3.20
2011,12,12,01,25,-3.20
2011,12,12,01,26,-3.30
2011,12,12,01,27,-3.20
2011,12,12,01,28,-3.20
2011,12,12,01,29,-3.20
2011,12,12,01,30,-3.20
2011,12,12,01,31,-3.20
2011,12,12,01,32,-3.20
2011,12,12,01,33,-3.20
2011,12,12,01,34,-3.20
2011,12,12,01,35,-3.20
2011,12,12,01,36,-3.10
2011,12,12,01,37,-3.10
2011,12,12,01,38,-3.10
2011,12,12,01,39,-3.10
2011,12,12,01,40,-3.10
2011,12,12,01,41,-3.20
2011,12,12,01,42,-3.20
2011,12,12,01,43,-3.20
2011,12,12,01,44,-3.20
2011,12,12,01,45,-3.20
2011,12,12,01,46,-3.20
2011,12,12,01,47,-3.20
2011,12,12,01,48,-3.20
2011,12,12,01,49,-3.20
2011,12,12,01,50,-3.20
2011,12,12,01,51,-3.20
2011,12,12,01,52,-3.20
2011,12,12,01,53,-3.20
2011,12,12,01,54,-3.20
2011,12,12,01,55,-3.20
2011,12,12,01,56,-3.20
2011,12,12,01,57,-3.20
2011,12,12,01,58,-3.20
2011,12,12,01,59,-3.30
2011,12,12,02,00,-3.30
2011,12,12,02,01,-3.30
2011,12,12,02,02,-3.30
2011,12,12,02,03,-3.30
2011,12,12,02,04,-3.30
2011,12,12,02,05,-3.30
2011,12,12,02,06,-3.30
2011,12,12,02,07,-3.30
2011,12,12,02,08,-3.30
2011,12,12,02,09,-3.30
2011,12,12,02,10,-3.30
2011,12,12,02,11,-3.30
2011,12,12,02,12,-3.30
2011,12,12,02,13,-3.30
2011,12,12,02,14,-3.30
2011,12,12,02,15,-3.30
2011,12,12,02,16,-3.30
2011,12,12,02,17,-3.30
2011,12,12,02,18,-3.20
2011,12,12,02,19,-3.20
2011,12,12,02,20,-3.20
2011,12,12,02,21,-3.20
2011,12,12,02,22,-3.20
2011,12,12,02,23,-3.20
2011,12,12,02,24,-3.20
2011,12,12,02,25,-3.30
2011,12,12,02,26,-3.30
2011,12,12,02,27,-3.30
2011,12,12,02,28,-3.40
2011,12,12,02,29,-3.40
2011,12,12,02,30,-3.40
2011,12,12,02,31,-3.40
2011,12,12,02,32,-3.40
2011,12,12,02,33,-3.40
2011,12,12,02,34,-3.40
2011,12,12,02,35,-3.50
2011,12,12,02,36,-3.50
2011,12,12,02,37,-3.50
2011,12,12,02,38,-3.60
2011,12,12,02,39,-3.60
2011,12,12,02,40,-3.60
2011,12,12,02,41,-3.60
2011,12,12,02,42,-3.60
2011,12,12,02,43,-3.60
2011,12,12,02,44,-3.60
2011,12,12,02,45,-3.70
2011,12,12,02,46,-3.70
2011,12,12,02,47,-3.70
2011,12,12,02,48,-3.70
2011,12,12,02,49,-3.60
2011,12,12,02,50,-3.60
2011,12,12,02,51,-3.60
2011,12,12,02,52,-3.60
2011,12,12,02,53,-3.50
2011,12,12,02,54,-3.50
2011,12,12,02,55,-3.50
2011,12,12,02,56,-3.50
2011,12,12,02,57,-3.50
2011,12,12,02,58,-3.50
2011,12,12,02,59,-3.50
2011,12,12,03,00,-3.50
2011,12,12,03,01,-3.50
2011,12,12,03,02,-3.50
2011,12,12,03,03,-3.50
2011,12,12,03,06,-3.50
2011,12,12,03,07,-3.50
2011,12,12,03,08,-3.60
2011,12,12,03,09,-3.60
2011,12,12,03,10,-3.60
2011,12,12,03,11,-3.60
2011,12,12,03,12,-3.60
2011,12,12,03,13,-3.60
2011,12,12,03,14,-3.70
2011,12,12,03,15,-3.70
2011,12,12,03,16,-3.70
2011,12,12,03,17,-3.70
2011,12,12,03,18,-3.60
2011,12,12,03,19,-3.60
2011,12,12,03,20,-3.60
2011,12,12,03,21,-3.60
2011,12,12,03,22,-3.70
2011,12,12,03,23,-3.60
2011,12,12,03,24,-3.60
2011,12,12,03,25,-3.70
2011,12,12,03,26,-3.70
2011,12,12,03,27,-3.70
2011,12,12,03,28,-3.70
2011,12,12,03,29,-3.70
2011,12,12,03,30,-3.70
2011,12,12,03,31,-3.70
2011,12,12,03,32,-3.70
2011,12,12,03,33,-3.70
2011,12,12,03,34,-3.70
2011,12,12,03,35,-3.70
2011,12,12,03,36,-3.70
2011,12,12,03,37,-3.70
2011,12,12,03,38,-3.80
2011,12,12,03,39,-3.80
2011,12,12,03,40,-3.80
2011,12,12,03,41,-3.80
2011,12,12,03,42,-3.80
2011,12,12,03,43,-3.80
2011,12,12,03,44,-3.80
2011,12,12,03,45,-3.80
2011,12,12,03,46,-3.80
2011,12,12,03,47,-3.80
2011,12,12,03,48,-3.80
2011,12,12,03,49,-3.80
2011,12,12,03,50,-3.80
2011,12,12,03,51,-3.80
2011,12,12,03,52,-3.80
2011,12,12,03,53,-3.80
2011,12,12,03,54,-3.80
2011,12,12,03,55,-3.80
2011,12,12,03,56,-3.80
2011,12,12,03,57,-3.80
2011,12,12,03,58,-3.80
2011,12,12,03,59,-3.80
2011,12,12,04,00,-3.80
2011,12,12,04,01,-3.70
2011,12,12,04,02,-3.70
2011,12,12,04,03,-3.70
2011,12,12,04,04,-3.70
2011,12,12,04,05,-3.70
2011,12,12,04,06,-3.70
2011,12,12,04,07,-3.70
2011,12,12,04,08,-3.60
2011,12,12,04,09,-3.60
2011,12,12,04,10,-3.60
2011,12,12,04,11,-3.60
2011,12,12,04,12,-3.60
2011,12,12,04,13,-3.60
2011,12,12,04,14,-3.60
2011,12,12,04,15,-3.60
2011,12,12,04,16,-3.60
2011,12,12,04,17,-3.70
2011,12,12,04,18,-3.70
2011,12,12,04,19,-3.70
2011,12,12,04,20,-3.80
2011,12,12,04,21,-3.80
2011,12,12,04,22,-3.80
2011,12,12,04,23,-3.90
2011,12,12,04,24,-3.90
2011,12,12,04,25,-3.90
2011,12,12,04,26,-3.90
2011,12,12,04,27,-3.90
2011,12,12,04,28,-3.80
2011,12,12,04,29,-3.90
2011,12,12,04,30,-3.90
2011,12,12,04,31,-3.90
2011,12,12,04,32,-3.90
2011,12,12,04,33,-3.90
2011,12,12,04,34,-3.90
2011,12,12,04,35,-3.90
2011,12,12,04,36,-4.00
2011,12,12,04,37,-4.00
2011,12,12,04,38,-4.00
2011,12,12,04,39,-4.10
2011,12,12,04,40,-4.10
2011,12,12,04,41,-4.10
2011,12,12,04,42,-4.10
2011,12,12,04,43,-4.10
2011,12,12,04,44,-4.10
2011,12,12,04,45,-4.10
2011,12,12,04,46,-4.10
2011,12,12,04,47,-4.10
2011,12,12,04,48,-4.10
2011,12,12,04,49,-4.10
2011,12,12,04,50,-4.10
2011,12,12,04,51,-4.10
2011,12,12,04,52,-4.10
2011,12,12,04,53,-4.00
2011,12,12,04,54,-4.00
2011,12,12,04,55,-4.00
2011,12,12,04,56,-4.00
2011,12,12,04,57,-4.00
2011,12,12,04,58,-4.00
2011,12,12,04,59,-4.00
2011,12,12,05,00,-4.00
2011,12,12,05,01,-4.10
2011,12,12,05,02,-4.10
2011,12,12,05,03,-4.10
2011,12,12,05,04,-4.10
2011,12,12,05,05,-4.10
2011,12,12,05,06,-4.10
2011,12,12,05,07,-4.20
2011,12,12,05,08,-4.20
2011,12,12,05,09,-4.20
2011,12,12,05,10,-4.20
2011,12,12,05,11,-4.30
2011,12,12,05,12,-4.30
2011,12,12,05,13,-4.30
2011,12,12,05,14,-4.40
2011,12,12,05,15,-4.40
2011,12,12,05,16,-4.40
2011,12,12,05,17,-4.40
2011,12,12,05,18,-4.40
2011,12,12,05,19,-4.40
2011,12,12,05,20,-4.40
2011,12,12,05,21,-4.40
2011,12,12,05,22,-4.40
2011,12,12,05,23,-4.40
2011,12,12,05,24,-4.50
2011,12,12,05,25,-4.50
2011,12,12,05,26,-4.50
2011,12,12,05,27,-4.50
2011,12,12,05,28,-4.50
2011,12,12,05,29,-4.50
2011,12,12,05,30,-4.50
2011,12,12,05,31,-4.50
2011,12,12,05,32,-4.50
2011,12,12,05,33,-4.50
2011,12,12,05,34,-4.50
2011,12,12,05,35,-4.40
2011,12,12,05,36,-4.40
2011,12,12,05,37,-4.30
2011,12,12,05,38,-4.20
2011,12,12,05,39,-4.20
2011,12,12,05,40,-4.20
2011,12,12,05,41,-4.20
2011,12,12,05,42,-4.20
2011,12,12,05,43,-4.10
2011,12,12,05,44,-4.10
2011,12,12,05,45,-4.10
2011,12,12,05,46,-4.10
2011,12,12,05,47,-4.10
2011,12,12,05,48,-4.10
2011,12,12,05,49,-4.20
2011,12,12,05,50,-4.20
2011,12,12,05,51,-4.20
2011,12,12,05,52,-4.30
2011,12,12,05,53,-4.30
2011,12,12,05,54,-4.30
2011,12,12,05,55,-4.40
2011,12,12,05,56,-4.40
2011,12,12,05,57,-4.50
2011,12,12,05,58,-4.50
2011,12,12,05,59,-4.60
2011,12,12,06,00,-4.60
2011,12,12,06,01,-4.60
2011,12,12,06,02,-4.60
2011,12,12,06,03,-4.70
2011,12,12,06,04,-4.70
2011,12,12,06,05,-4.60
2011,12,12,06,06,-4.60
2011,12,12,06,07,-4.60
2011,12,12,06,08,-4.50
2011,12,12,06,09,-4.50
2011,12,12,06,10,-4.50
2011,12,12,06,11,-4.40
2011,12,12,06,12,-4.40
2011,12,12,06,13,-4.40
2011,12,12,06,14,-4.40
2011,12,12,06,15,-4.40
2011,12,12,06,16,-4.40
2011,12,12,06,17,-4.40
2011,12,12,06,18,-4.30
2011,12,12,06,19,-4.30
2011,12,12,06,20,-4.30
2011,12,12,06,21,-4.20
2011,12,12,06,22,-4.20
2011,12,12,06,23,-4.20
2011,12,12,06,24,-4.20
2011,12,12,06,25,-4.20
2011,12,12,06,26,-4.20
2011,12,12,06,27,-4.20
2011,12,12,06,28,-4.10
2011,12,12,06,29,-4.10
2011,12,12,06,30,-4.10
2011,12,12,06,31,-4.10
2011,12,12,06,32,-4.10
2011,12,12,06,33,-4.10
2011,12,12,06,34,-4.10
2011,12,12,06,35,-4.10
2011,12,12,06,36,-4.10
2011,12,12,06,37,-4.10
2011,12,12,06,38,-4.10
2011,12,12,06,39,-4.10
2011,12,12,06,40,-4.10
2011,12,12,06,41,-4.10
2011,12,12,06,42,-4.10
2011,12,12,06,43,-4.20
2011,12,12,06,44,-4.20
2011,12,12,06,45,-4.20
2011,12,12,06,46,-4.30
2011,12,12,06,47,-4.30
2011,12,12,06,48,-4.40
2011,12,12,06,49,-4.40
2011,12,12,06,50,-4.40
2011,12,12,06,51,-4.50
2011,12,12,06,52,-4.50
2011,12,12,06,53,-4.50
2011,12,12,06,54,-4.50
2011,12,12,06,55,-4.50
2011,12,12,06,56,-4.50
2011,12,12,06,57,-4.50
2011,12,12,06,58,-4.50
2011,12,12,06,59,-4.50
2011,12,12,07,00,-4.50
2011,12,12,07,01,-4.50
2011,12,12,07,02,-4.50
2011,12,12,07,03,-4.50
2011,12,12,07,04,-4.50
2011,12,12,07,05,-4.50
2011,12,12,07,06,-4.50
2011,12,12,07,07,-4.50
2011,12,12,07,08,-4.50
2011,12,12,07,09,-4.50
2011,12,12,07,10,-4.50
2011,12,12,07,11,-4.60
2011,12,12,07,12,-4.60
2011,12,12,07,13,-4.60
2011,12,12,07,14,-4.60
2011,12,12,07,15,-4.60
2011,12,12,07,16,-4.60
2011,12,12,07,17,-4.60
2011,12,12,07,18,-4.60
2011,12,12,07,19,-4.60
2011,12,12,07,20,-4.50
2011,12,12,07,21,-4.50
2011,12,12,07,22,-4.50
2011,12,12,07,23,-4.60
2011,12,12,07,24,-4.60
2011,12,12,07,25,-4.60
2011,12,12,07,26,-4.60
2011,12,12,07,27,-4.60
2011,12,12,07,28,-4.60
2011,12,12,07,29,-4.60
2011,12,12,07,30,-4.60
2011,12,12,07,31,-4.60
2011,12,12,07,32,-4.70
2011,12,12,07,33,-4.70
2011,12,12,07,34,-4.70
2011,12,12,07,35,-4.70
2011,12,12,07,36,-4.70
2011,12,12,07,37,-4.70
2011,12,12,07,38,-4.70
2011,12,12,07,39,-4.70
2011,12,12,07,40,-4.70
2011,12,12,07,41,-4.60
2011,12,12,07,42,-4.70
2011,12,12,07,43,-4.70
2011,12,12,07,44,-4.70
2011,12,12,07,45,-4.70
2011,12,12,07,46,-4.70
2011,12,12,07,47,-4.60
2011,12,12,07,48,-4.60
2011,12,12,07,49,-4.60
2011,12,12,07,50,-4.50
2011,12,12,07,51,-4.50
2011,12,12,07,52,-4.50
2011,12,12,07,53,-4.40
2011,12,12,07,54,-4.40
2011,12,12,07,55,-4.40
2011,12,12,07,56,-4.40
2011,12,12,07,57,-4.40
2011,12,12,07,58,-4.40
2011,12,12,07,59,-4.40
2011,12,12,08,00,-4.40
2011,12,12,08,01,-4.40
2011,12,12,08,02,-4.50
2011,12,12,08,03,-4.50
2011,12,12,08,04,-4.50
2011,12,12,08,05,-4.60
2011,12,12,08,06,-4.60
2011,12,12,08,07,-4.60
2011,12,12,08,08,-4.60
2011,12,12,08,09,-4.70
2011,12,12,08,10,-4.70
2011,12,12,08,11,-4.70
2011,12,12,08,12,-4.70
2011,12,12,08,13,-4.70
2011,12,12,08,14,-4.70
2011,12,12,08,15,-4.80
2011,12,12,08,16,-4.70
2011,12,12,08,17,-4.70
2011,12,12,08,18,-4.70
2011,12,12,08,19,-4.70
2011,12,12,08,20,-4.70
2011,12,12,08,21,-4.70
2011,12,12,08,22,-4.70
2011,12,12,08,23,-4.70
2011,12,12,08,24,-4.60
2011,12,12,08,25,-4.60
2011,12,12,08,26,-4.60
2011,12,12,08,27,-4.50
2011,12,12,08,28,-4.50
2011,12,12,08,29,-4.50
2011,12,12,08,30,-4.40
2011,12,12,08,31,-4.40
2011,12,12,08,32,-4.40
2011,12,12,08,33,-4.30
2011,12,12,08,34,-4.30
2011,12,12,08,35,-4.30
2011,12,12,08,36,-4.20
2011,12,12,08,37,-4.20
2011,12,12,08,38,-4.10
2011,12,12,08,39,-4.10
2011,12,12,08,40,-4.10
2011,12,12,08,41,-4.00
2011,12,12,08,42,-4.00
2011,12,12,08,43,-3.90
2011,12,12,08,44,-3.90
2011,12,12,08,45,-3.80
2011,12,12,08,46,-3.80
2011,12,12,08,47,-3.70
2011,12,12,08,48,-3.70
2011,12,12,08,49,-3.70
2011,12,12,08,50,-3.60
2011,12,12,08,51,-3.60
2011,12,12,08,52,-3.60
2011,12,12,08,53,-3.50
2011,12,12,08,54,-3.50
2011,12,12,08,55,-3.40
2011,12,12,08,56,-3.40
2011,12,12,08,57,-3.40
2011,12,12,08,58,-3.30
2011,12,12,08,59,-3.30
2011,12,12,09,00,-3.30
2011,12,12,09,01,-3.30
2011,12,12,09,02,-3.30
2011,12,12,09,03,-3.20
2011,12,12,09,04,-3.20
2011,12,12,09,05,-3.20
2011,12,12,09,06,-3.20
2011,12,12,09,07,-3.20
2011,12,12,09,08,-3.10
2011,12,12,09,09,-3.10
2011,12,12,09,10,-3.00
2011,12,12,09,11,-3.00
2011,12,12,09,12,-3.00
2011,12,12,09,13,-2.90
2011,12,12,09,14,-2.90
2011,12,12,09,15,-2.80
2011,12,12,09,16,-2.80
2011,12,12,09,17,-2.80
2011,12,12,09,18,-2.70
2011,12,12,09,19,-2.70
2011,12,12,09,20,-2.70
2011,12,12,09,21,-2.70
2011,12,12,09,22,-2.70
2011,12,12,09,23,-2.60
2011,12,12,09,24,-2.60
2011,12,12,09,25,-2.60
2011,12,12,09,26,-2.50
2011,12,12,09,27,-2.50
2011,12,12,09,28,-2.40
2011,12,12,09,29,-2.40
2011,12,12,09,30,-2.30
2011,12,12,09,31,-2.30
2011,12,12,09,32,-2.30
2011,12,12,09,33,-2.20
2011,12,12,09,34,-2.20
2011,12,12,09,35,-2.10
2011,12,12,09,36,-2.10
2011,12,12,09,37,-2.00
2011,12,12,09,38,-2.00
2011,12,12,09,39,-1.90
2011,12,12,09,40,-1.90
2011,12,12,09,41,-1.80
2011,12,12,09,42,-1.80
2011,12,12,09,43,-1.70
2011,12,12,09,44,-1.60
2011,12,12,09,45,-1.60
2011,12,12,09,46,-1.50
2011,12,12,09,47,-1.50
2011,12,12,09,48,-1.40
2011,12,12,09,49,-1.30
2011,12,12,09,50,-1.30
2011,12,12,09,51,-1.20
2011,12,12,09,52,-1.00
2011,12,12,09,53,-1.00
2011,12,12,09,54,-0.90
2011,12,12,09,55,-0.80
2011,12,12,09,56,-0.80
2011,12,12,09,57,-0.80
2011,12,12,09,58,-0.70
2011,12,12,09,59,-0.70
2011,12,12,10,00,-0.70
2011,12,12,10,01,-0.70
2011,12,12,10,02,-0.70
2011,12,12,10,03,-0.60
2011,12,12,10,04,-0.60
2011,12,12,10,05,-0.60
2011,12,12,10,06,-0.60
2011,12,12,10,07,-0.60
2011,12,12,10,08,-0.60
2011,12,12,10,09,-0.50
2011,12,12,10,10,-0.40
2011,12,12,10,11,-0.40
2011,12,12,10,12,-0.30
2011,12,12,10,13,-0.30
2011,12,12,10,14,-0.20
2011,12,12,10,15,-0.10
2011,12,12,10,16,0.00
2011,12,12,10,17,0.00
2011,12,12,10,18,0.10
2011,12,12,10,19,0.10
2011,12,12,10,20,0.20
2011,12,12,10,21,0.20
2011,12,12,10,22,0.20
2011,12,12,10,23,0.20
2011,12,12,10,24,0.30
2011,12,12,10,25,0.40
2011,12,12,10,26,0.40
2011,12,12,10,27,0.50
2011,12,12,10,28,0.50
2011,12,12,10,29,0.60
2011,12,12,10,30,0.60
2011,12,12,10,31,0.70
2011,12,12,10,32,0.70
2011,12,12,10,33,0.70
2011,12,12,10,34,0.70
2011,12,12,10,35,0.70
2011,12,12,10,36,0.80
2011,12,12,10,37,0.70
2011,12,12,10,38,0.70
2011,12,12,10,39,0.70
2011,12,12,10,40,0.70
2011,12,12,10,41,0.70
2011,12,12,10,42,0.70
2011,12,12,10,43,0.70
2011,12,12,10,44,0.70
2011,12,12,10,45,0.70
2011,12,12,10,46,0.70
2011,12,12,10,47,0.70
2011,12,12,10,48,0.70
2011,12,12,10,49,0.80
2011,12,12,10,50,0.80
2011,12,12,10,51,0.80
2011,12,12,10,52,0.90
2011,12,12,10,53,0.90
2011,12,12,10,54,1.00
2011,12,12,10,55,1.00
2011,12,12,10,56,1.10
2011,12,12,10,57,1.20
2011,12,12,10,58,1.20
2011,12,12,10,59,1.30
2011,12,12,11,00,1.30
2011,12,12,11,01,1.40
2011,12,12,11,02,1.50
2011,12,12,11,03,1.60
2011,12,12,11,04,1.70
2011,12,12,11,05,1.70
2011,12,12,11,06,1.80
2011,12,12,11,07,1.90
2011,12,12,11,08,2.10
2011,12,12,11,09,2.20
2011,12,12,11,10,2.30
2011,12,12,11,11,2.40
2011,12,12,11,12,2.60
2011,12,12,11,13,2.60
2011,12,12,11,14,2.70
2011,12,12,11,15,2.70
2011,12,12,11,16,2.70
2011,12,12,11,17,2.70
2011,12,12,11,18,2.70
2011,12,12,11,19,2.70
2011,12,12,11,20,2.70
2011,12,12,11,21,2.80
2011,12,12,11,22,2.80
2011,12,12,11,23,2.80
2011,12,12,11,24,2.90
2011,12,12,11,25,2.90
2011,12,12,11,26,2.90
2011,12,12,11,27,2.90
2011,12,12,11,28,3.00
2011,12,12,11,29,3.00
2011,12,12,11,30,3.10
2011,12,12,11,31,3.10
2011,12,12,11,32,3.10
2011,12,12,11,33,3.20
2011,12,12,11,34,3.20
2011,12,12,11,35,3.30
2011,12,12,11,36,3.30
2011,12,12,11,37,3.30
2011,12,12,11,38,3.40
2011,12,12,11,39,3.40
2011,12,12,11,40,3.50
2011,12,12,11,41,3.50
2011,12,12,11,42,3.60
2011,12,12,11,43,3.60
2011,12,12,11,44,3.70
2011,12,12,11,45,3.70
2011,12,12,11,46,3.70
2011,12,12,11,47,3.70
2011,12,12,11,48,3.80
2011,12,12,11,49,3.80
2011,12,12,11,50,3.90
2011,12,12,11,51,3.90
2011,12,12,11,52,3.90
2011,12,12,11,53,4.00
2011,12,12,11,54,4.00
2011,12,12,11,55,4.10
2011,12,12,11,56,4.10
2011,12,12,11,57,4.20
2011,12,12,11,58,4.20
2011,12,12,11,59,4.20
2011,12,12,12,00,4.30
2011,12,12,12,01,4.30
2011,12,12,12,02,4.30
2011,12,12,12,03,4.40
2011,12,12,12,04,4.40
2011,12,12,12,05,4.40
2011,12,12,12,06,4.40
2011,12,12,12,07,4.40
2011,12,12,12,08,4.40
2011,12,12,12,09,4.50
2011,12,12,12,10,4.50
2011,12,12,12,11,4.50
2011,12,12,12,12,4.50
2011,12,12,12,13,4.50
2011,12,12,12,14,4.60
2011,12,12,12,15,4.60
2011,12,12,12,16,4.70
2011,12,12,12,17,4.70
2011,12,12,12,18,4.70
2011,12,12,12,19,4.80
2011,12,12,12,20,4.80
2011,12,12,12,21,4.90
2011,12,12,12,22,4.90
2011,12,12,12,23,5.00
2011,12,12,12,24,5.10
2011,12,12,12,25,5.10
2011,12,12,12,26,5.20
2011,12,12,12,27,5.20
2011,12,12,12,28,5.30
2011,12,12,12,29,5.30
2011,12,12,12,30,5.40
2011,12,12,12,31,5.40
2011,12,12,12,32,5.50
2011,12,12,12,33,5.50
2011,12,12,12,34,5.60
2011,12,12,12,35,5.70
2011,12,12,12,36,5.70
2011,12,12,12,37,5.70
2011,12,12,12,38,5.80
2011,12,12,12,39,5.70
2011,12,12,12,40,5.70
2011,12,12,12,41,5.70
2011,12,12,12,42,5.70
2011,12,12,12,43,5.70
2011,12,12,12,44,5.70
2011,12,12,12,45,5.70
2011,12,12,12,46,5.70
2011,12,12,12,47,5.70
2011,12,12,12,48,5.70
2011,12,12,12,49,5.70
2011,12,12,12,50,5.80
2011,12,12,12,51,5.80
2011,12,12,12,52,5.90
2011,12,12,12,53,6.00
2011,12,12,12,54,6.00
2011,12,12,12,55,6.00
2011,12,12,12,56,6.10
2011,12,12,12,57,6.10
2011,12,12,12,58,6.10
2011,12,12,12,59,6.10
2011,12,12,13,00,6.20
2011,12,12,13,01,6.20
2011,12,12,13,02,6.20
2011,12,12,13,03,6.30
2011,12,12,13,04,6.30
2011,12,12,13,05,6.40
2011,12,12,13,06,6.40
2011,12,12,13,07,6.50
2011,12,12,13,08,6.60
2011,12,12,13,09,6.60
2011,12,12,13,10,6.70
2011,12,12,13,11,6.70
2011,12,12,13,12,6.80
2011,12,12,13,13,6.90
2011,12,12,13,14,6.90
2011,12,12,13,15,7.00
2011,12,12,13,16,7.00
2011,12,12,13,17,7.10
2011,12,12,13,18,7.10
2011,12,12,13,19,7.00
2011,12,12,13,20,7.00
2011,12,12,13,21,7.10
2011,12,12,13,22,7.10
2011,12,12,13,23,7.10
2011,12,12,13,24,7.00
2011,12,12,13,25,7.00
2011,12,12,13,26,6.90
2011,12,12,13,27,6.90
2011,12,12,13,28,6.90
2011,12,12,13,29,6.90
2011,12,12,13,30,6.90
2011,12,12,13,31,6.90
2011,12,12,13,32,6.90
2011,12,12,13,33,7.00
2011,12,12,13,34,7.00
2011,12,12,13,35,7.00
2011,12,12,13,36,7.00
2011,12,12,13,37,7.10
2011,12,12,13,38,7.10
2011,12,12,13,39,7.20
2011,12,12,13,40,7.20
2011,12,12,13,41,7.20
2011,12,12,13,42,7.30
2011,12,12,13,43,7.30
2011,12,12,13,44,7.30
2011,12,12,13,45,7.30
2011,12,12,13,46,7.30
2011,12,12,13,47,7.20
2011,12,12,13,48,7.20
2011,12,12,13,49,7.20
2011,12,12,13,50,7.30
2011,12,12,13,51,7.30
2011,12,12,13,52,7.30
2011,12,12,13,53,7.40
2011,12,12,13,54,7.50
2011,12,12,13,55,7.60
2011,12,12,13,56,7.70
2011,12,12,13,57,7.80
2011,12,12,13,58,7.80
2011,12,12,13,59,7.80
2011,12,12,14,00,7.80
2011,12,12,14,01,7.70
2011,12,12,14,02,7.60
2011,12,12,14,03,7.50
2011,12,12,14,04,7.40
2011,12,12,14,05,7.30
2011,12,12,14,06,7.30
2011,12,12,14,07,7.20
2011,12,12,14,08,7.20
2011,12,12,14,09,7.10
2011,12,12,14,10,7.10
2011,12,12,14,11,7.10
2011,12,12,14,12,7.10
2011,12,12,14,13,7.10
2011,12,12,14,14,7.20
2011,12,12,14,15,7.20
2011,12,12,14,16,7.10
2011,12,12,14,17,7.10
2011,12,12,14,18,7.10
2011,12,12,14,19,7.10
2011,12,12,14,20,7.10
2011,12,12,14,21,7.10
2011,12,12,14,22,7.00
2011,12,12,14,23,7.00
2011,12,12,14,24,7.00
2011,12,12,14,25,6.90
2011,12,12,14,26,6.90
2011,12,12,14,27,6.90
2011,12,12,14,28,6.80
2011,12,12,14,29,6.80
2011,12,12,14,30,6.80
2011,12,12,14,31,6.80
2011,12,12,14,32,6.70
2011,12,12,14,33,6.70
2011,12,12,14,34,6.70
2011,12,12,14,35,6.70
2011,12,12,14,36,6.70
2011,12,12,14,37,6.70
2011,12,12,14,38,6.70
2011,12,12,14,39,6.70
2011,12,12,14,40,6.70
2011,12,12,14,41,6.80
2011,12,12,14,42,6.80
2011,12,12,14,43,6.80
2011,12,12,14,44,6.90
2011,12,12,14,45,6.90
2011,12,12,14,46,6.90
2011,12,12,14,47,6.90
2011,12,12,14,48,6.90
2011,12,12,14,49,6.90
2011,12,12,14,50,6.90
2011,12,12,14,51,6.80
2011,12,12,14,52,6.80
2011,12,12,14,53,6.80
2011,12,12,14,54,6.80
2011,12,12,14,55,6.70
2011,12,12,14,56,6.70
2011,12,12,14,57,6.70
2011,12,12,14,58,6.70
2011,12,12,14,59,6.70
2011,12,12,15,00,6.70
2011,12,12,15,01,6.60
2011,12,12,15,02,6.60
2011,12,12,15,03,6.60
2011,12,12,15,04,6.60
2011,12,12,15,05,6.60
2011,12,12,15,06,6.60
2011,12,12,15,07,6.60
2011,12,12,15,08,6.60
2011,12,12,15,09,6.60
2011,12,12,15,10,6.60
2011,12,12,15,11,6.60
2011,12,12,15,12,6.60
2011,12,12,15,13,6.60
2011,12,12,15,14,6.60
2011,12,12,15,15,6.60
2011,12,12,15,16,6.60
2011,12,12,15,17,6.60
2011,12,12,15,18,6.60
2011,12,12,15,19,6.60
2011,12,12,15,20,6.60
2011,12,12,15,21,6.60
2011,12,12,15,22,6.60
2011,12,12,15,23,6.50
2011,12,12,15,24,6.50
2011,12,12,15,25,6.50
2011,12,12,15,26,6.40
2011,12,12,15,27,6.40
2011,12,12,15,28,6.40
2011,12,12,15,29,6.40
2011,12,12,15,30,6.40
2011,12,12,15,31,6.50
2011,12,12,15,32,6.50
2011,12,12,15,33,6.50
2011,12,12,15,34,6.50
2011,12,12,15,35,6.40
2011,12,12,15,36,6.40
2011,12,12,15,37,6.40
2011,12,12,15,38,6.40
2011,12,12,15,39,6.40
2011,12,12,15,40,6.40
2011,12,12,15,41,6.30
2011,12,12,15,42,6.30
2011,12,12,15,43,6.30
2011,12,12,15,44,6.20
2011,12,12,15,45,6.20
2011,12,12,15,46,6.20
2011,12,12,15,47,6.10
2011,12,12,15,48,6.10
2011,12,12,15,49,6.10
2011,12,12,15,50,6.00
2011,12,12,15,51,6.00
2011,12,12,15,52,5.90
2011,12,12,15,53,5.90
2011,12,12,15,54,5.90
2011,12,12,15,55,5.80
2011,12,12,15,56,5.80
2011,12,12,15,57,5.80
2011,12,12,15,58,5.70
2011,12,12,15,59,5.70
2011,12,12,16,00,5.70
2011,12,12,16,01,5.60
2011,12,12,16,02,5.60
2011,12,12,16,03,5.50
2011,12,12,16,04,5.50
2011,12,12,16,05,5.50
2011,12,12,16,06,5.40
2011,12,12,16,07,5.40
2011,12,12,16,08,5.40
2011,12,12,16,09,5.30
2011,12,12,16,10,5.30
2011,12,12,16,11,5.20
2011,12,12,16,12,5.20
2011,12,12,16,13,5.10
2011,12,12,16,14,5.10
2011,12,12,16,15,5.00
2011,12,12,16,16,4.90
2011,12,12,16,17,4.90
2011,12,12,16,18,4.80
2011,12,12,16,19,4.80
2011,12,12,16,20,4.70
2011,12,12,16,21,4.70
2011,12,12,16,22,4.60
2011,12,12,16,23,4.60
2011,12,12,16,24,4.50
2011,12,12,16,25,4.40
2011,12,12,16,26,4.30
2011,12,12,16,27,4.30
2011,12,12,16,28,4.20
2011,12,12,16,29,4.10
2011,12,12,16,30,4.00
2011,12,12,16,31,3.90
2011,12,12,16,32,3.80
2011,12,12,16,33,3.70
2011,12,12,16,34,3.60
2011,12,12,16,35,3.50
2011,12,12,16,36,3.50
2011,12,12,16,37,3.30
2011,12,12,16,38,3.30
2011,12,12,16,39,3.20
2011,12,12,16,40,3.10
2011,12,12,16,41,3.10
2011,12,12,16,42,3.00
2011,12,12,16,43,2.90
2011,12,12,16,44,2.90
2011,12,12,16,45,2.80
2011,12,12,16,46,2.80
2011,12,12,16,47,2.70
2011,12,12,16,48,2.60
2011,12,12,16,49,2.60
2011,12,12,16,50,2.50
2011,12,12,16,51,2.50
2011,12,12,16,52,2.40
2011,12,12,16,53,2.30
2011,12,12,16,54,2.30
2011,12,12,16,55,2.20
2011,12,12,16,56,2.20
2011,12,12,16,57,2.10
2011,12,12,16,58,2.10
2011,12,12,16,59,2.00
2011,12,12,17,00,2.00
2011,12,12,17,01,1.90
2011,12,12,17,02,1.80
2011,12,12,17,03,1.80
2011,12,12,17,04,1.70
2011,12,12,17,05,1.70
2011,12,12,17,06,1.60
2011,12,12,17,07,1.60
2011,12,12,17,08,1.50
2011,12,12,17,09,1.50
2011,12,12,17,10,1.50
2011,12,12,17,11,1.40
2011,12,12,17,12,1.40
2011,12,12,17,13,1.30
2011,12,12,17,14,1.30
2011,12,12,17,15,1.30
2011,12,12,17,16,1.30
2011,12,12,17,17,1.30
2011,12,12,17,18,1.30
2011,12,12,17,19,1.20
2011,12,12,17,20,1.20
2011,12,12,17,21,1.20
2011,12,12,17,22,1.20
2011,12,12,17,23,1.10
2011,12,12,17,24,1.10
2011,12,12,17,25,1.00
2011,12,12,17,26,1.00
2011,12,12,17,27,1.00
2011,12,12,17,28,0.90
2011,12,12,17,29,0.90
2011,12,12,17,30,0.90
2011,12,12,17,31,0.90
2011,12,12,17,32,0.90
2011,12,12,17,33,0.90
2011,12,12,17,34,0.90
2011,12,12,17,35,0.80
2011,12,12,17,36,0.80
2011,12,12,17,37,0.80
2011,12,12,17,38,0.80
2011,12,12,17,39,0.80
2011,12,12,17,40,0.70